User: anonymous   Login
Location: Champseau
(45.8333°N, 1.7667°E)
Time: 03:49:41
(UTC+00:00)
Language:

PicSat - Orbit

View from above orbital plane
View from above orbital plane
View from above satellite
View from above satellite

Ground track
Ground track

The orbit data is extracted from the following two-line orbital elements,

1 43131U 18004W   21332.68197837  .00006858  00000-0  24572-3 0  9995
2 43131  97.3982  47.5920 0007522 352.6922   7.4207 15.29038755215849
Epoch (UTC): 28 November 2021 16:22:02
Eccentricity: 0.0007522
inclination: 97.3982°
perigee height: 473 km
apogee height: 484 km
right ascension of ascending node: 47.5920°
argument of perigee: 352.6922°
revolutions per day: 15.29038755
mean anomaly at epoch: 7.4207°
orbit number at epoch: 21584

The dashed part of the orbit path shows where the satellite is in the earth's shadow,  

DLR